Lexington, NE

12:31 PM CDT on April 23, 2018 (GMT -0500)
Kelly

Weather History for KLXN - April, 2013

Change the Weather History Date:

Friday, April 19, 2013

  Actual Average Record
Temperature  
Mean Temperature 37 °F -  
Max Temperature 50 °F 59 °F 77 °F (2005)
Min Temperature 24 °F 35 °F 24 °F (2013)
Degree Days  
Heating Degree Days 28    
Moisture  
Dew Point 28 °F    
Average Humidity 69    
Maximum Humidity 86    
Minimum Humidity 49    
Precipitation  
Precipitation 0.00 in - - ()
Sea Level Pressure  
Sea Level Pressure 30.00 in    
Wind  
Wind Speed 13 mph (NW)    
Max Wind Speed 25 mph    
Max Gust Speed 31 mph    
Visibility 10 miles    
Events      
Averages and records for this station are not official NWS values.
T = Trace of Precipitation, MM = Missing Value Source: NWS Daily Summary

Daily Weather History Graph

Daily Weather History Graph

Search for Another Location

Airport or City:

Astronomy

Apr. 19, 2013 Rise Set
Actual Time 6:53 AM CDT 8:23 PM CDT
Civil Twilight 6:25 AM CDT 8:51 PM CDT
Nautical Twilight 5:50 AM CDT 9:26 PM CDT
Astronomical Twilight 5:13 AM CDT 10:03 PM CDT
Moon 2:07 PM CDT (4/19) 3:12 AM CDT (4/19)
Length of Visible Light 14h 26m
Length of Day
13h 29m
First Quarter, 62% of the Moon is Illuminated
Apr 19
First Quarter
Apr 25
Full
May 2
Last Quarter
May 9
New
May 17
First Quarter

Hourly Weather History & Observations

Time (CDT) Temp. Windchill Dew Point Humidity Pressure Visibility Wind Dir Wind Speed Gust Speed Precip Events Conditions
12:15 AM 29.5 °F 18.8 °F 24.4 °F 81% 30.02 in 10.0 mi WNW 13.8 mph - N/A   Clear
12:35 AM 29.1 °F 19.4 °F 23.9 °F 81% 30.01 in 10.0 mi WNW 11.5 mph - N/A   Clear
12:55 AM 29.3 °F 18.6 °F 23.7 °F 80% 30.01 in 10.0 mi WNW 13.8 mph - N/A   Clear
1:15 AM 28.9 °F 17.7 °F 23.0 °F 78% 30.01 in 10.0 mi WNW 15.0 mph 19.6 mph N/A   Clear
1:35 AM 29.3 °F 17.7 °F 22.8 °F 77% 30.01 in 10.0 mi WNW 16.1 mph - N/A   Clear
1:55 AM 29.1 °F 17.1 °F 22.5 °F 76% 30.00 in 10.0 mi WNW 17.3 mph - N/A   Clear
2:15 AM 29.1 °F 18.4 °F 22.5 °F 76% 30.00 in 10.0 mi WNW 13.8 mph - N/A   Clear
2:35 AM 28.9 °F 17.7 °F 22.5 °F 77% 29.99 in 10.0 mi WNW 15.0 mph - N/A   Scattered Clouds
2:55 AM 28.4 °F 19.1 °F 22.6 °F 79% 29.99 in 10.0 mi WNW 10.4 mph - N/A   Clear
3:15 AM 28.0 °F 18.6 °F 22.6 °F 80% 29.99 in 10.0 mi WNW 10.4 mph - N/A   Clear
3:35 AM 27.3 °F 17.7 °F 22.6 °F 83% 29.99 in 10.0 mi WNW 10.4 mph - N/A   Clear
3:55 AM 27.0 °F 18.0 °F 22.6 °F 84% 29.99 in 10.0 mi West 9.2 mph - N/A   Clear
4:15 AM 27.0 °F 18.0 °F 22.1 °F 82% 29.99 in 10.0 mi WNW 9.2 mph - N/A   Clear
4:35 AM 27.5 °F 17.4 °F 22.1 °F 80% 29.99 in 10.0 mi WNW 11.5 mph - N/A   Clear
4:55 AM 27.5 °F 18.0 °F 21.4 °F 78% 29.99 in 10.0 mi WNW 10.4 mph - N/A   Clear
5:15 AM 27.1 °F 18.2 °F 21.9 °F 81% 29.99 in 10.0 mi West 9.2 mph - N/A   Clear
5:55 AM 25.0 °F 17.1 °F 20.1 °F 82% 29.98 in 10.0 mi West 6.9 mph - N/A   Clear
6:15 AM 25.0 °F 17.1 °F 20.7 °F 84% 29.98 in 10.0 mi West 6.9 mph - N/A   Clear
6:35 AM 24.4 °F 15.6 °F 20.7 °F 86% 29.98 in 10.0 mi West 8.1 mph - N/A   Clear
6:55 AM 24.4 °F 17.5 °F 20.7 °F 86% 29.98 in 10.0 mi West 5.8 mph - N/A   Clear
7:15 AM 24.8 °F 20.5 °F 20.8 °F 85% 29.98 in 10.0 mi West 3.5 mph - N/A   Clear
7:35 AM 26.1 °F 19.4 °F 22.1 °F 85% 29.98 in 10.0 mi West 5.8 mph - N/A   Clear
7:55 AM 27.3 °F - 22.6 °F 83% 29.97 in 10.0 mi Calm Calm - N/A   Scattered Clouds
8:15 AM 28.6 °F 20.7 °F 23.2 °F 80% 29.97 in 10.0 mi West 8.1 mph - N/A   Overcast
8:35 AM 31.6 °F 22.6 °F 25.0 °F 76% 29.98 in 10.0 mi West 11.5 mph - N/A   Overcast
8:55 AM 32.5 °F 23.7 °F 24.8 °F 73% 29.98 in 10.0 mi WNW 11.5 mph - N/A   Overcast
9:15 AM 32.5 °F 25.5 °F 24.8 °F 73% 29.98 in 10.0 mi West 8.1 mph - N/A   Mostly Cloudy
9:55 AM 36.5 °F 28.7 °F 27.5 °F 70% 29.98 in 10.0 mi WNW 11.5 mph - N/A   Clear
10:15 AM 38.3 °F 30.1 °F 28.0 °F 67% 29.98 in 10.0 mi WNW 13.8 mph - N/A   Clear
10:35 AM 39.4 °F 31.4 °F 29.3 °F 67% 29.98 in 10.0 mi WNW 13.8 mph - N/A   Clear
10:55 AM 41.0 °F 33.5 °F 30.2 °F 65% 29.99 in 10.0 mi WNW 13.8 mph - N/A   Clear
11:15 AM 42.1 °F 35.2 °F 30.6 °F 64% 29.99 in 10.0 mi NW 12.7 mph - N/A   Clear
11:35 AM 44.4 °F 36.4 °F 31.8 °F 61% 29.99 in 10.0 mi NNW 19.6 mph 24.2 mph N/A   Clear
11:55 AM 45.3 °F 36.7 °F 32.7 °F 61% 29.99 in 10.0 mi NNW 24.2 mph 29.9 mph N/A   Scattered Clouds
12:15 PM 46.2 °F 38.7 °F 33.3 °F 61% 29.99 in 10.0 mi NNW 19.6 mph 27.6 mph N/A   Scattered Clouds
12:35 PM 46.9 °F - 32.5 °F 57% 29.99 in 10.0 mi NNW 18.4 mph 25.3 mph N/A   Scattered Clouds
12:55 PM 48.2 °F - 31.8 °F 53% 29.99 in 10.0 mi NNW 23.0 mph 31.1 mph N/A   Mostly Cloudy
1:15 PM 48.0 °F - 31.8 °F 54% 29.99 in 10.0 mi NNW 24.2 mph 29.9 mph N/A   Scattered Clouds
1:35 PM 48.7 °F - 31.5 °F 51% 29.99 in 10.0 mi NNW 25.3 mph 29.9 mph N/A   Mostly Cloudy
1:55 PM 49.3 °F - 30.7 °F 49% 29.99 in 10.0 mi NNW 24.2 mph 27.6 mph N/A   Overcast
2:15 PM 48.7 °F - 30.7 °F 50% 29.99 in 10.0 mi NNW 21.9 mph 28.8 mph N/A   Overcast
2:35 PM 49.1 °F - 31.6 °F 51% 29.99 in 10.0 mi NNW 21.9 mph 29.9 mph N/A   Overcast
2:55 PM 48.0 °F - 30.6 °F 51% 30.00 in 10.0 mi NNW 20.7 mph 26.5 mph N/A   Overcast
3:15 PM 49.1 °F - 31.3 °F 50% 30.00 in 10.0 mi NNW 19.6 mph 23.0 mph N/A   Overcast
3:35 PM 48.6 °F - 31.3 °F 51% 30.00 in 10.0 mi NNW 19.6 mph 25.3 mph N/A   Overcast
3:55 PM 48.7 °F - 31.5 °F 51% 29.99 in 10.0 mi North 16.1 mph 19.6 mph N/A   Overcast
4:15 PM 49.5 °F - 31.5 °F 50% 29.99 in 10.0 mi North 16.1 mph 20.7 mph N/A   Mostly Cloudy
4:35 PM 50.2 °F - 32.0 °F 50% 30.00 in 10.0 mi North 15.0 mph - N/A   Scattered Clouds
4:55 PM 47.1 °F - 31.8 °F 55% 30.00 in 10.0 mi North 13.8 mph 20.7 mph N/A   Clear
5:15 PM 48.7 °F - 32.5 °F 54% 30.00 in 10.0 mi North 17.3 mph - N/A   Scattered Clouds
5:35 PM 47.3 °F - 31.8 °F 55% 30.00 in 10.0 mi North 11.5 mph - N/A   Clear
5:55 PM 48.6 °F - 31.8 °F 52% 30.00 in 10.0 mi North 15.0 mph 18.4 mph N/A   Scattered Clouds
6:15 PM 47.3 °F - 31.8 °F 55% 30.00 in 10.0 mi North 16.1 mph 19.6 mph N/A   Scattered Clouds
6:35 PM 48.0 °F - 32.0 °F 54% 30.01 in 10.0 mi North 12.7 mph - N/A   Scattered Clouds
6:55 PM 47.5 °F - 31.3 °F 53% 30.01 in 10.0 mi North 10.4 mph - N/A   Clear
7:15 PM 46.9 °F - 31.5 °F 55% 30.01 in 10.0 mi North 9.2 mph - N/A   Clear
7:35 PM 45.9 °F 41.2 °F 30.9 °F 56% 30.02 in 10.0 mi North 9.2 mph - N/A   Clear
7:55 PM 44.8 °F 41.6 °F 31.6 °F 60% 30.02 in 10.0 mi NNE 5.8 mph - N/A   Clear
8:15 PM 42.8 °F 38.0 °F 31.8 °F 65% 30.02 in 10.0 mi NNE 8.1 mph - N/A   Clear
8:35 PM 40.5 °F 35.8 °F 31.5 °F 70% 30.02 in 10.0 mi NE 6.9 mph - N/A   Clear
8:55 PM 38.7 °F 34.3 °F 31.1 °F 74% 30.03 in 10.0 mi NE 5.8 mph - N/A   Clear
9:15 PM 37.4 °F 32.1 °F 30.7 °F 77% 30.03 in 10.0 mi ENE 6.9 mph - N/A   Clear
9:35 PM 39.0 °F 34.8 °F 29.8 °F 70% 30.04 in 10.0 mi ENE 5.8 mph - N/A   Clear
9:55 PM 36.0 °F 30.3 °F 30.0 °F 79% 30.05 in 10.0 mi NE 6.9 mph - N/A   Clear
10:15 PM 34.9 °F 29.0 °F 29.5 °F 81% 30.05 in 10.0 mi ENE 6.9 mph - N/A   Clear
10:35 PM 34.5 °F - 29.1 °F 81% 30.05 in 10.0 mi Calm Calm - N/A   Clear
10:55 PM 35.8 °F 33.0 °F 28.0 °F 73% 30.05 in 10.0 mi ENE 3.5 mph - N/A   Clear
11:15 PM 36.5 °F 32.7 °F 28.0 °F 71% 30.05 in 10.0 mi ENE 4.6 mph - N/A   Scattered Clouds
11:35 PM 34.7 °F 29.6 °F 29.3 °F 81% 30.04 in 10.0 mi East 5.8 mph - N/A   Scattered Clouds
11:55 PM 34.7 °F 28.1 °F 28.9 °F 79% 30.04 in 10.0 mi East 8.1 mph - N/A   Clear